COSMOS 1275 DEB, 39937

Orbit data source: Space-Track

COSMOS 1275 DEB, 39937 is space debris in LEO originally from a launch on Thu, 04 Jun 1981 UTC launched from the Plesetsk Missile And Space Complex (PKMTR). Debris objects in space refer to the collection of defunct objects orbiting the Earth. Examples of debris include non-operational satellites, rocket bodies, and fragments generated from explosions, collisions, or faulty payload assembly.

Loading next visibility...
Identifier
39937, 1981-053MX
Orbit
LEO
Country
Flag of CISCIS
Related business
Manufacturer
Unknown
Mission
Spacecraft
Bus & Motor
Unknown
Mass
Unknown
Launch date (UTC)
1981-06-04 (45 years ago)
Launch vehicle
Unknown
Launch site
Plesetsk Missile And Space Complex (PKMTR)
Object type
Payload
Rocket body
Debris
Shape & HBR
Unknown shape, 0.1 m
Radar Cross Section
Small (<0.1 m²)

Expand to show TLE details & history
Last TLE update: 1 day ago

TLE from 1 day ago
0 COSMOS 1275 DEB
1 39937U 81053MX  26144.71322212  .00001092  00000-0  88616-3 0  9999
2 39937  82.8863 137.9059 0062868 175.3586 184.8175 13.88245392631422
Epoch: 2026-05-24T17:07Z
TLE epoch observation values (Epoch: 2026-05-24T17:07:02.391Z)
Latitude
0.00005°
Longitude
-1.16547°
Altitude
983.527 km
Speed
7.337 km/s
True Right ascension
09h 11m 37s
True Declination
0° 00' 00"
Sunlit
Object was in daylight at epoch
Visualization orbit readout
Latitude
Unknown
Longitude
Unknown
Altitude
Unknown
Speed
Unknown
Apparent Right ascension
Unknown
Apparent Declination
Unknown
Sunlit
N/A
Visualization observer readout
Local Sidereal Time
13:05:26
Azimuth
Unknown
Elevation
Unknown
Doppler factor
Unknown
Orbital elements
Apogee altitude
977.876 km
Perigee altitude
885.962 km
Semi-major axis
7,310.056 km
Eccentricity
0.00629
Inclination
82.8863°
RAAN
137.9059°
Arg. of periapsis
175.3586°
True anomaly
184.75747°
Mean anomaly
184.8175°
Eccentric anomaly
184.78744°
Mean motion
3.47266 °/min
Orbital period
103.67 mins
BSTAR
0.00088616
Loading maneuver chart data...
Computing Atmospheric mass density...
Loading historical data...
Loading historical data...
Loading historical data...
Loading historical data...
Loading historical data...
Loading historical data...
Loading historical data...

Documentation

Showing up to 5 results
|